QPF
0.00 0.00 0.00 0.00 0.00 0.00 0.00 0.00 0.00 0.00 0.00 0.00 0.00 0.00 0.00 0.00 0.00 0.00 0.00 0.00 0.00 0.00 0.00 0.00 0.00 0.00 0.00 0.00 0.00 0.00 0.00 0.00 0.00 0.00 0.00 0.00 0.00 0.00 0.00 0.00 0.00 0.00
0.00 0.00 0.00 0.00 0.00 0.00 0.00 0.00 0.00 0.00 0.00 0.00 0.00 0.00 0.00 0.00 0.00 0.00 0.00 0.00 0.00 0.00 0.00 0.00 0.00 0.00 0.00 0.00 0.00 0.00 0.00 0.00 0.00 0.00 0.00 0.00 0.00 0.00 0.00 0.00 0.00 0.00
0.00 0.00 0.00 0.00 0.00 0.00 0.00 0.00 0.00 0.00 0.00 0.00 0.00 0.00 0.00 0.00 0.00 0.00 0.00 0.00 0.00 0.00 0.00 0.00 0.00 0.00 0.00 0.00 0.00 0.00 0.00 0.00 0.00 0.00 0.00 0.00 0.00 0.00 0.00 0.00 0.00 0.00
0.00 0.00 0.00 0.00 0.00 0.00 0.00 0.00 0.00 0.00 0.00 0.00 0.00 0.00 0.00 0.00 0.00 0.00 0.00 0.00 0.00 0.00 0.00 0.00 0.00 0.00 0.00 0.00 0.00 0.00 0.00 0.00 0.00 0.00 0.00 0.00 0.00 0.00 0.00 0.00 0.00 0.00
0.00 0.00 0.00 0.00 0.00 0.00 0.00 0.00 0.00 0.00 0.00 0.00 0.00 0.00 0.00 0.00 0.00 0.00 0.00 0.00 0.00 0.00 0.00 0.00 0.00 0.00 0.00 0.00 0.00 0.00 0.00 0.00 0.00 0.00 0.00 0.00 0.00 0.00 0.00 0.00 0.00 0.00
0.00 0.00 0.00 0.00 0.00 0.00 0.00 0.00 0.00 0.00 0.00 0.00 0.00 0.00 0.00 0.00 0.00 0.00 0.00 0.00 0.00 0.00 0.00 0.00 0.00 0.00 0.00 0.00 0.00 0.00 0.00 0.00 0.00 0.00 0.00 0.00 0.00 0.00 0.00 0.00 0.00 0.00
0.00 0.00 0.00 0.00 0.00 0.00 0.00 0.00 0.00 0.00 0.00 0.00 0.00 0.00 0.00 0.00 0.00 0.00 0.00 0.00 0.00 0.00 0.00 0.00 0.00 0.00 0.00 0.00 0.00 0.00 0.00 0.00 0.00 0.00 0.00 0.00 0.00 0.00 0.00 0.00 0.00 0.00
0.00 0.00 0.00 0.00 0.00 0.00 0.00 0.00 0.00 0.00 0.00 0.00 0.00 0.00 0.00 0.00 0.00 0.00 0.00 0.00 0.00 0.00 0.00 0.00 0.00 0.00 0.00 0.00 0.00 0.00 0.00 0.00 0.00 0.00 0.00 0.00 0.00 0.00 0.00 0.00 0.00 0.00
0.00 0.00 0.00 0.00 0.00 0.00 0.00 0.00 0.00 0.00 0.00 0.00 0.00 0.00 0.00 0.00 0.00 0.00 0.00 0.00 0.00 0.00 0.00 0.00 0.00 0.00 0.00 0.00 0.00 0.00 0.00 0.00 0.00 0.00 0.00 0.00 0.00 0.00 0.00 0.00 0.00 0.00
0.00 0.00 0.00 0.00 0.00 0.00 0.00 0.00 0.00 0.00 0.00 0.00 0.00 0.00 0.00 0.00 0.00 0.00 0.00 0.00 0.00 0.00 0.00 0.00 0.00 0.00 0.00 0.00 0.00 0.00 0.00 0.00 0.00 0.00 0.00 0.00 0.00 0.00 0.00 0.00 0.00 0.00
0.00 0.00 0.00 0.00 0.00 0.00 0.00 0.00 0.00 0.00 0.00 0.00 0.00 0.00 0.00 0.00 0.00 0.00 0.01 0.03 0.15 0.31 0.23 0.34 0.31 0.25 0.10 0.07 0.00 0.00 0.00 0.00 0.00 0.00 0.00 0.00 0.00 0.00 0.00 0.00 0.00 0.00
0.00 0.00 0.00 0.00 0.00 0.00 0.00 0.00 0.00 0.00 0.00 0.00 0.00 0.00 0.00 0.00 0.02 0.21 0.33 0.54 0.68 0.44 0.43 0.44 0.30 0.44 0.34 0.29 0.33 0.23 0.14 0.00 0.00 0.00 0.00 0.00 0.00 0.00 0.00 0.00 0.00 0.00
0.00 0.00 0.00 0.00 0.00 0.00 0.00 0.00 0.00 0.00 0.00 0.00 0.00 0.00 0.01 0.04 0.03 0.30 0.54 0.43 0.35 0.60 0.59 0.40 0.69 0.70 0.30 0.45 0.17 0.16 0.02 0.01 0.00 0.00 0.00 0.00 0.00 0.00 0.00 0.00 0.00 0.00
0.00 0.00 0.00 0.00 0.00 0.00 0.00 0.00 0.00 0.00 0.00 0.00 0.00 0.00 0.04 0.06 0.05 0.14 0.16 0.05 0.21 0.60 0.57 0.67 0.62 0.21 0.17 0.12 0.03 0.02 0.03 0.01 0.00 0.00 0.00 0.00 0.00 0.00 0.00 0.00 0.00 0.00
0.00 0.00 0.00 0.00 0.00 0.00 0.00 0.00 0.00 0.00 0.00 0.00 0.00 0.01 0.00 0.00 0.01 0.00 0.01 0.01 0.00 0.01 0.02 0.03 0.03 0.01 0.00 0.00 0.00 0.00 0.00 0.00 0.00 0.00 0.00 0.00 0.00 0.00 0.00 0.00 0.00 0.00
0.00 0.00 0.00 0.00 0.00 0.00 0.00 0.00 0.00 0.00 0.00 0.00 0.00 0.00 0.00 0.00 0.00 0.00 0.00 0.00 0.00 0.00 0.00 0.01 0.01 0.01 0.00 0.00 0.00 0.00 0.00 0.00 0.00 0.00 0.00 0.00 0.00 0.00 0.00 0.00 0.00 0.00
0.00 0.00 0.00 0.00 0.00 0.00 0.00 0.00 0.00 0.00 0.00 0.00 0.00 0.00 0.00 0.00 0.00 0.00 0.00 0.00 0.00 0.00 0.00 0.00 0.00 0.00 0.00 0.00 0.00 0.00 0.00 0.00 0.00 0.00 0.00 0.00 0.00 0.00 0.00 0.00 0.00 0.00
0.00 0.00 0.00 0.00 0.00 0.00 0.00 0.00 0.00 0.00 0.00 0.00 0.00 0.00 0.00 0.00 0.00 0.00 0.00 0.00 0.00 0.00 0.00 0.00 0.00 0.00 0.00 0.00 0.00 0.00 0.00 0.00 0.00 0.00 0.00 0.00 0.00 0.00 0.00 0.00 0.00 0.00
0.01 0.11 0.23 0.04 0.00 0.00 0.00 0.00 0.00 0.00 0.00 0.00 0.00 0.00 0.00 0.00 0.00 0.00 0.00 0.00 0.00 0.00 0.00 0.00 0.00 0.00 0.00 0.00 0.00 0.00 0.00 0.00 0.00 0.00 0.00 0.00 0.00 0.00 0.00 0.00 0.00 0.00
0.00 0.00 0.00 0.00 0.00 0.00 0.01 0.00 0.00 0.00 0.00 0.00 0.00 0.00 0.00 0.00 0.00 0.00 0.00 0.00 0.00 0.00 0.00 0.00 0.00 0.00 0.00 0.00 0.00 0.00 0.00 0.00 0.00 0.00 0.00 0.00 0.00 0.00 0.00 0.00 0.00 0.00
0.00 0.00 0.00 0.00 0.00 0.00 0.00 0.00 0.01 0.00 0.00 0.00 0.00 0.00 0.00 0.00 0.00 0.00 0.00 0.00 0.00 0.00 0.00 0.00 0.00 0.00 0.00 0.00 0.00 0.00 0.00 0.00 0.00 0.00 0.00 0.00 0.00 0.00 0.00 0.00 0.00 0.00
0.01 0.00 0.00 0.00 0.00 0.00 0.00 0.00 0.00 0.00 0.00 0.00 0.00 0.00 0.00 0.00 0.00 0.00 0.00 0.00 0.00 0.00 0.00 0.00 0.00 0.00 0.00 0.00 0.00 0.00 0.00 0.00 0.00 0.00 0.00 0.00 0.00 0.00 0.00 0.00 0.00 0.00
0.02 0.03 0.01 0.00 0.00 0.00 0.00 0.00 0.00 0.00 0.01 0.01 0.03 0.00 0.01 0.07 0.05 0.00 0.00 0.00 0.00 0.00 0.00 0.00 0.00 0.00 0.00 0.00 0.00 0.00 0.00 0.00 0.00 0.00 0.00 0.00 0.00 0.00 0.00 0.00 0.00 0.00
0.03 0.03 0.02 0.01 0.01 0.00 0.00 0.02 0.02 0.07 0.17 0.17 0.22 0.33 0.16 0.06 0.02 0.00 0.00 0.01 0.00 0.00 0.00 0.00 0.00 0.00 0.00 0.00 0.00 0.00 0.00 0.00 0.00 0.00 0.02 0.10 0.05 0.01 0.00 0.00 0.00 0.00
0.02 0.03 0.02 0.01 0.01 0.00 0.00 0.00 0.00 0.06 0.28 0.40 0.48 0.74 0.89 0.55 0.26 0.04 0.03 0.07 0.01 0.01 0.00 0.01 0.02 0.00 0.01 0.00 0.00 0.00 0.00 0.00 0.03 0.18 0.04 0.08 0.05 0.00 0.00 0.00 0.00 0.00
0.04 0.04 0.02 0.01 0.01 0.01 0.00 0.02 0.05 0.17 0.54 0.54 0.14 0.12 0.21 0.08 0.16 0.08 0.04 0.07 0.03 0.03 0.06 0.18 0.36 0.05 0.00 0.00 0.00 0.00 0.01 0.01 0.08 0.13 0.44 0.23 0.09 0.04 0.01 0.00 0.00 0.00
MSLP
1016.59 1016.75 1016.83 1016.99 1017.07 1017.07 1017.27 1017.51 1017.51 1017.63 1017.67 1017.71 1017.87 1017.79 1017.75 1017.55 1017.39 1017.47 1017.47 1017.47 1017.55 1017.59 1017.55 1017.59 1017.55 1017.63 1017.55 1017.59 1017.59 1017.63 1017.71 1017.67 1017.59 1017.55 1017.67 1017.71 1017.79 1017.83 1017.87 1017.79 1017.75 1017.75
1016.55 1016.63 1016.59 1016.71 1016.87 1016.91 1016.99 1016.99 1017.23 1017.35 1017.47 1017.43 1017.43 1017.43 1017.35 1017.31 1017.27 1017.27 1017.39 1017.47 1017.43 1017.47 1017.43 1017.47 1017.47 1017.51 1017.55 1017.59 1017.59 1017.67 1017.71 1017.67 1017.79 1017.47 1017.71 1017.83 1017.79 1017.67 1017.75 1017.67 1017.67 1017.51
1016.47 1016.59 1016.63 1016.79 1016.87 1016.95 1016.91 1016.87 1016.95 1017.07 1017.19 1017.11 1017.07 1017.11 1017.15 1017.03 1017.15 1017.07 1017.11 1017.23 1017.35 1017.35 1017.39 1017.39 1017.43 1017.43 1017.43 1017.47 1017.51 1017.63 1017.71 1017.75 1017.87 1017.63 1017.71 1017.79 1017.59 1017.67 1017.59 1017.43 1017.43 1017.43
1016.39 1016.39 1016.47 1016.51 1016.55 1016.71 1016.71 1016.87 1016.95 1016.95 1016.91 1017.07 1017.07 1016.83 1016.79 1016.79 1016.83 1016.99 1017.03 1017.03 1017.19 1017.23 1017.23 1017.23 1017.27 1017.31 1017.31 1017.35 1017.43 1017.63 1017.63 1017.67 1017.55 1017.47 1017.63 1017.55 1017.47 1017.43 1017.47 1017.31 1017.31 1017.27
1016.23 1016.31 1016.31 1016.31 1016.31 1016.39 1016.51 1016.79 1016.91 1016.87 1016.87 1016.79 1016.71 1016.63 1016.67 1016.71 1016.79 1016.87 1016.95 1016.95 1016.95 1017.07 1017.07 1017.15 1017.11 1017.19 1017.19 1017.31 1017.39 1017.63 1017.63 1017.67 1017.47 1017.47 1017.67 1017.75 1017.51 1017.47 1017.35 1017.31 1017.47 1017.59
1015.95 1016.03 1016.11 1016.19 1016.23 1016.35 1016.55 1016.63 1016.59 1016.59 1016.63 1016.63 1016.55 1016.39 1016.43 1016.43 1016.55 1016.63 1016.71 1016.83 1016.79 1016.87 1016.95 1016.95 1017.07 1017.07 1017.11 1017.19 1017.31 1017.47 1017.55 1017.67 1017.47 1017.55 1017.75 1017.79 1017.63 1017.43 1017.39 1017.43 1017.51 1017.63
1015.91 1015.95 1016.07 1015.99 1016.11 1016.15 1016.35 1016.35 1016.31 1016.27 1016.27 1016.19 1016.15 1016.31 1016.15 1016.31 1016.39 1016.39 1016.43 1016.47 1016.55 1016.63 1016.75 1016.87 1016.99 1017.07 1016.99 1017.07 1017.27 1017.43 1017.43 1017.43 1017.47 1017.47 1017.67 1017.71 1017.59 1017.59 1017.47 1017.51 1017.59 1017.67
1015.67 1015.67 1015.79 1015.91 1016.03 1016.07 1016.23 1016.15 1016.11 1016.07 1015.95 1015.95 1016.15 1015.95 1015.91 1016.03 1016.07 1016.07 1016.11 1016.15 1016.31 1016.43 1016.55 1016.63 1016.79 1016.87 1016.91 1017.03 1017.31 1017.47 1017.47 1017.35 1017.51 1017.59 1017.67 1017.71 1017.67 1017.75 1017.59 1017.47 1017.55 1017.63
1015.35 1015.51 1015.63 1015.79 1015.91 1015.91 1015.99 1015.91 1015.83 1015.79 1015.67 1015.83 1015.87 1015.79 1015.63 1015.67 1015.71 1015.79 1015.87 1015.99 1016.11 1016.23 1016.39 1016.55 1016.63 1016.75 1016.79 1016.95 1017.19 1017.31 1017.43 1017.43 1017.39 1017.51 1017.63 1017.71 1017.75 1017.71 1017.67 1017.55 1017.63 1017.63
1015.19 1015.19 1015.39 1015.51 1015.67 1015.63 1015.67 1015.59 1015.51 1015.47 1015.39 1015.55 1015.51 1015.47 1015.59 1015.43 1015.35 1015.47 1015.67 1015.87 1016.07 1016.11 1016.39 1016.63 1016.75 1016.79 1016.71 1016.79 1016.95 1017.07 1017.23 1017.35 1017.35 1017.35 1017.39 1017.43 1017.51 1017.55 1017.51 1017.51 1017.55 1017.63
1015.03 1014.99 1015.15 1015.19 1015.27 1015.27 1015.31 1015.23 1015.15 1015.11 1015.07 1015.19 1015.23 1015.31 1015.23 1015.27 1015.31 1015.27 1015.83 1016.51 1017.47 1018.47 1018.91 1018.95 1019.07 1019.11 1018.67 1017.83 1017.15 1016.87 1016.91 1017.07 1017.15 1017.23 1017.27 1017.31 1017.31 1017.31 1017.31 1017.39 1017.43 1017.55
1014.71 1014.79 1014.83 1014.87 1014.91 1014.91 1014.95 1014.87 1014.83 1014.83 1014.83 1014.83 1014.79 1015.03 1014.95 1015.19 1015.95 1017.07 1017.87 1018.39 1018.03 1017.35 1017.11 1017.03 1016.83 1017.03 1017.35 1017.79 1017.95 1018.03 1017.83 1016.95 1016.95 1017.07 1017.15 1017.19 1017.23 1017.23 1017.19 1017.19 1017.35 1017.35
1014.35 1014.43 1014.43 1014.47 1014.51 1014.55 1014.51 1014.55 1014.51 1014.43 1014.47 1014.59 1014.47 1014.59 1014.91 1015.43 1015.99 1016.39 1016.59 1016.71 1016.79 1017.11 1017.07 1017.03 1017.07 1017.27 1017.47 1017.47 1017.47 1017.27 1017.35 1017.11 1016.91 1016.99 1017.07 1017.11 1017.11 1017.07 1017.03 1017.07 1017.11 1017.15
1013.87 1013.87 1013.99 1014.03 1014.07 1014.11 1014.23 1014.23 1014.19 1014.19 1014.23 1014.15 1014.23 1014.63 1014.91 1015.19 1015.71 1015.99 1016.35 1016.39 1016.43 1016.63 1016.79 1016.59 1016.83 1017.07 1017.15 1017.07 1016.79 1016.83 1017.15 1017.31 1016.75 1016.87 1017.03 1017.03 1016.99 1016.95 1016.91 1016.95 1016.91 1016.91
1013.47 1013.51 1013.59 1013.71 1013.79 1013.91 1014.03 1014.11 1014.07 1014.07 1013.99 1013.99 1014.15 1014.47 1014.63 1014.87 1014.95 1015.35 1015.87 1016.11 1016.31 1016.43 1016.43 1016.51 1016.71 1016.83 1016.75 1016.79 1016.75 1016.55 1016.47 1016.47 1016.55 1016.71 1016.79 1016.87 1016.87 1016.87 1016.79 1016.79 1016.79 1016.79
1013.15 1013.27 1013.39 1013.47 1013.67 1013.87 1013.91 1013.91 1013.99 1013.95 1013.95 1014.03 1014.19 1014.19 1014.35 1014.67 1014.79 1015.11 1015.43 1015.75 1016.07 1016.23 1016.27 1016.35 1016.39 1016.47 1016.51 1016.51 1016.43 1016.31 1016.27 1016.27 1016.39 1016.51 1016.55 1016.59 1016.79 1016.83 1016.83 1016.75 1016.71 1016.71
1013.11 1013.23 1013.27 1013.43 1013.51 1013.63 1013.75 1013.83 1013.91 1013.83 1013.83 1013.91 1014.07 1014.07 1014.15 1014.47 1014.83 1015.19 1015.35 1015.51 1015.79 1016.03 1016.27 1016.35 1016.47 1016.51 1016.59 1016.59 1016.35 1016.15 1016.15 1016.23 1016.35 1016.43 1016.43 1016.51 1016.59 1016.71 1016.95 1016.99 1016.91 1016.87
1013.07 1013.19 1013.43 1013.55 1013.47 1013.43 1013.51 1013.55 1013.67 1013.67 1013.71 1013.83 1014.07 1014.31 1014.35 1014.47 1014.87 1015.03 1015.19 1015.39 1015.67 1015.91 1016.19 1016.43 1016.51 1016.55 1016.55 1016.51 1016.39 1016.19 1016.07 1016.11 1016.15 1016.27 1016.27 1016.31 1016.47 1016.59 1016.75 1016.87 1016.99 1017.07
1013.23 1013.07 1013.19 1013.23 1013.35 1013.43 1013.19 1013.31 1013.39 1013.51 1013.63 1013.79 1014.07 1014.11 1014.23 1014.55 1014.83 1015.07 1015.27 1015.43 1015.71 1016.03 1016.31 1016.43 1016.47 1016.51 1016.47 1016.39 1016.27 1016.15 1016.07 1016.03 1016.11 1016.11 1016.23 1016.43 1016.51 1016.63 1016.75 1016.87 1017.03 1017.31
1012.83 1013.03 1013.03 1013.03 1012.99 1013.23 1013.27 1013.35 1013.47 1013.63 1013.67 1013.67 1013.87 1014.07 1014.23 1014.51 1014.75 1014.95 1015.19 1015.47 1015.75 1015.95 1016.23 1016.43 1016.51 1016.55 1016.51 1016.35 1016.23 1016.15 1016.07 1016.03 1016.07 1016.15 1016.23 1016.39 1016.55 1016.71 1016.91 1017.11 1017.23 1017.51
1012.31 1012.59 1012.87 1012.99 1012.95 1013.07 1013.27 1013.39 1013.55 1013.71 1013.83 1013.87 1013.95 1014.11 1014.31 1014.55 1014.79 1015.07 1015.27 1015.43 1015.67 1015.99 1016.35 1016.71 1016.83 1016.75 1016.59 1016.43 1016.31 1016.19 1016.11 1016.07 1016.11 1016.19 1016.35 1016.51 1016.63 1016.83 1017.03 1017.23 1017.43 1017.55
1012.15 1012.35 1012.55 1012.87 1013.19 1013.35 1013.47 1013.59 1013.59 1013.71 1013.95 1014.03 1014.23 1014.39 1014.51 1014.71 1015.03 1015.07 1015.39 1015.83 1016.23 1016.55 1016.75 1017.03 1017.19 1017.07 1016.71 1016.43 1016.27 1016.15 1016.03 1016.07 1016.15 1016.35 1016.55 1016.71 1016.83 1016.99 1017.15 1017.43 1017.59 1017.71
1011.99 1012.31 1012.55 1012.83 1013.11 1013.39 1013.55 1013.63 1013.79 1014.07 1014.31 1014.39 1014.71 1014.95 1015.19 1015.43 1015.67 1016.07 1016.27 1016.47 1016.75 1016.99 1017.19 1017.47 1017.55 1017.51 1017.19 1016.71 1016.39 1016.31 1016.27 1016.43 1016.51 1016.63 1016.75 1016.91 1017.15 1017.19 1017.39 1017.59 1017.75 1017.83
1011.87 1012.15 1012.55 1012.83 1013.07 1013.39 1013.59 1013.67 1013.87 1014.15 1014.55 1014.99 1015.63 1015.67 1015.71 1016.03 1016.43 1016.79 1017.03 1017.07 1017.15 1017.35 1017.51 1017.59 1017.75 1017.79 1017.63 1017.43 1017.07 1016.75 1016.71 1016.95 1017.03 1017.07 1017.03 1017.15 1017.35 1017.39 1017.43 1017.59 1017.63 1017.79
1011.83 1012.11 1012.51 1012.83 1013.11 1013.35 1013.55 1013.87 1014.15 1014.43 1014.75 1015.35 1016.07 1016.39 1016.75 1016.91 1017.03 1017.23 1017.43 1017.51 1017.55 1017.75 1017.91 1018.11 1018.11 1018.07 1017.91 1017.79 1017.67 1017.47 1017.31 1017.47 1017.39 1017.39 1017.63 1017.59 1017.59 1017.67 1017.75 1017.87 1018.07 1018.07
1011.99 1012.23 1012.63 1012.99 1013.31 1013.55 1013.83 1014.15 1014.31 1014.59 1014.95 1015.59 1016.11 1016.47 1016.95 1017.39 1017.75 1018.07 1018.11 1017.91 1017.67 1017.79 1018.11 1018.51 1018.75 1018.59 1018.43 1018.19 1017.95 1017.83 1017.79 1017.79 1017.99 1017.83 1018.15 1018.51 1017.99 1017.79 1017.95 1018.11 1018.15 1018.23
Thickness
5779 5779 5779 5780 5779 5779 5779 5778 5778 5777 5777 5778 5777 5778 5779 5781 5783 5783 5783 5783 5783 5783 5784 5784 5784 5784 5785 5785 5785 5785 5786 5786 5786 5787 5786 5785 5785 5785 5785 5785 5785 5784
5779 5780 5781 5780 5780 5780 5781 5781 5780 5780 5780 5780 5781 5781 5782 5783 5784 5784 5784 5784 5784 5784 5785 5785 5785 5785 5785 5786 5786 5786 5786 5786 5786 5787 5785 5784 5785 5785 5785 5785 5786 5785
5780 5780 5781 5781 5781 5781 5782 5782 5782 5782 5782 5782 5783 5783 5784 5785 5785 5785 5785 5785 5785 5785 5786 5786 5786 5787 5787 5787 5787 5786 5785 5784 5785 5786 5785 5785 5785 5785 5786 5786 5787 5787
5780 5780 5781 5782 5782 5782 5782 5782 5782 5782 5783 5783 5784 5785 5786 5787 5786 5786 5787 5787 5787 5786 5787 5788 5788 5788 5787 5788 5787 5785 5785 5785 5785 5786 5785 5785 5786 5786 5786 5787 5787 5787
5781 5781 5782 5783 5784 5784 5783 5783 5782 5783 5784 5784 5786 5787 5787 5788 5787 5787 5787 5787 5788 5788 5788 5789 5789 5789 5788 5787 5786 5785 5784 5785 5786 5786 5784 5784 5785 5786 5787 5787 5785 5785
5782 5782 5783 5783 5784 5784 5783 5783 5784 5785 5785 5786 5787 5788 5789 5789 5788 5788 5788 5788 5789 5789 5789 5789 5788 5788 5788 5787 5786 5785 5784 5784 5785 5785 5783 5782 5784 5785 5786 5785 5784 5784
5782 5782 5783 5783 5783 5784 5783 5784 5786 5786 5787 5788 5789 5789 5790 5790 5789 5790 5791 5791 5791 5790 5790 5790 5788 5789 5789 5788 5786 5785 5785 5784 5784 5784 5782 5782 5783 5783 5784 5784 5784 5783
5783 5783 5783 5783 5783 5783 5783 5785 5786 5787 5789 5790 5790 5791 5792 5792 5792 5793 5793 5793 5792 5791 5790 5789 5789 5788 5788 5787 5786 5784 5784 5784 5784 5783 5781 5782 5782 5781 5783 5784 5783 5783
5783 5784 5783 5783 5783 5783 5784 5786 5787 5789 5790 5790 5790 5792 5794 5794 5794 5794 5793 5793 5793 5792 5792 5791 5789 5789 5788 5787 5785 5784 5783 5783 5783 5782 5781 5781 5781 5781 5782 5783 5782 5781
5783 5785 5784 5784 5784 5784 5785 5787 5789 5791 5791 5792 5792 5793 5793 5795 5796 5796 5795 5793 5791 5787 5785 5783 5781 5782 5784 5786 5785 5784 5784 5782 5781 5782 5782 5781 5781 5781 5781 5781 5780 5780
5784 5784 5785 5785 5785 5786 5787 5789 5790 5792 5793 5793 5793 5794 5794 5795 5795 5792 5788 5784 5781 5779 5777 5777 5777 5776 5777 5780 5782 5783 5783 5783 5782 5781 5781 5781 5781 5781 5782 5781 5780 5779
5784 5784 5785 5786 5787 5788 5789 5790 5792 5793 5793 5794 5795 5795 5795 5793 5789 5784 5780 5778 5779 5780 5781 5783 5785 5784 5781 5779 5779 5779 5780 5782 5783 5782 5781 5781 5780 5780 5781 5780 5779 5778
5785 5786 5787 5787 5788 5789 5790 5791 5793 5794 5795 5795 5796 5796 5794 5791 5786 5783 5782 5783 5783 5782 5782 5783 5784 5782 5780 5779 5780 5780 5779 5781 5783 5782 5780 5780 5780 5780 5780 5780 5780 5779
5787 5787 5788 5789 5790 5791 5791 5792 5793 5794 5795 5796 5796 5795 5793 5790 5788 5786 5784 5784 5784 5782 5782 5783 5781 5779 5779 5780 5781 5782 5781 5780 5782 5781 5780 5780 5780 5780 5780 5779 5779 5778
5788 5788 5789 5790 5791 5792 5791 5792 5792 5793 5793 5794 5795 5794 5792 5791 5790 5788 5785 5784 5783 5782 5782 5782 5781 5780 5780 5781 5781 5782 5782 5782 5783 5781 5780 5779 5779 5778 5778 5778 5777 5777
5788 5788 5789 5789 5789 5789 5789 5790 5790 5791 5791 5792 5793 5793 5792 5791 5790 5787 5785 5783 5782 5781 5781 5780 5780 5780 5780 5779 5780 5782 5782 5782 5781 5781 5780 5779 5778 5777 5775 5776 5776 5776
5787 5787 5786 5787 5787 5786 5786 5787 5787 5789 5791 5791 5792 5792 5792 5790 5787 5785 5784 5784 5782 5780 5779 5777 5777 5776 5776 5776 5778 5779 5780 5780 5779 5778 5779 5778 5777 5775 5773 5773 5773 5772
5784 5785 5783 5782 5783 5783 5784 5785 5786 5788 5790 5790 5790 5790 5790 5789 5785 5784 5783 5782 5780 5778 5776 5774 5774 5774 5774 5774 5775 5777 5777 5778 5778 5777 5777 5776 5775 5773 5771 5770 5769 5768
5781 5781 5781 5780 5780 5781 5783 5785 5786 5787 5789 5789 5788 5788 5789 5787 5785 5783 5782 5779 5777 5775 5773 5772 5771 5771 5771 5772 5773 5774 5775 5776 5776 5775 5775 5773 5772 5770 5768 5767 5766 5764
5778 5777 5778 5780 5781 5781 5781 5782 5783 5783 5785 5786 5786 5785 5786 5785 5782 5781 5779 5776 5774 5771 5768 5768 5768 5767 5769 5770 5771 5772 5773 5773 5773 5772 5771 5770 5769 5766 5764 5762 5761 5759
5778 5777 5776 5777 5779 5778 5778 5778 5778 5780 5781 5783 5783 5782 5782 5781 5780 5778 5776 5773 5770 5768 5765 5763 5762 5763 5765 5766 5767 5768 5769 5769 5769 5768 5767 5765 5764 5763 5760 5758 5756 5754
5778 5776 5776 5774 5773 5774 5774 5775 5776 5776 5777 5778 5778 5776 5775 5775 5773 5772 5770 5767 5764 5762 5760 5757 5756 5757 5759 5761 5763 5764 5765 5765 5765 5764 5763 5761 5759 5757 5755 5753 5751 5749
5775 5775 5774 5772 5771 5770 5770 5772 5772 5770 5771 5771 5770 5769 5768 5766 5764 5762 5760 5759 5758 5756 5754 5753 5751 5751 5753 5755 5757 5758 5759 5759 5759 5758 5758 5756 5753 5751 5749 5747 5745 5744
5771 5772 5771 5769 5768 5767 5767 5768 5767 5766 5765 5763 5760 5760 5758 5756 5755 5752 5750 5750 5751 5750 5749 5747 5745 5745 5746 5747 5750 5752 5752 5751 5751 5752 5751 5749 5747 5745 5743 5741 5739 5739
5766 5767 5766 5765 5764 5763 5762 5761 5760 5761 5760 5755 5750 5749 5748 5746 5746 5743 5742 5743 5744 5742 5741 5739 5738 5739 5739 5740 5741 5743 5744 5744 5743 5744 5742 5740 5739 5737 5735 5734 5733 5733
5760 5761 5760 5759 5758 5757 5756 5755 5754 5755 5752 5748 5744 5743 5741 5739 5738 5735 5733 5734 5737 5737 5734 5730 5729 5729 5731 5733 5734 5736 5736 5736 5736 5735 5732 5729 5729 5730 5730 5729 5729 5728